Airfield :
LOGIN :

Register | Disclaimer

   EN    FR    IT 

 










Legend :    VFR   Marginal VFR   IFR   Intensive IFR   Very Intensive IFR
Visi :
Ceiling :
>= 8 km
>= 3000ft
5 to 8 km
1000 to 3000 ft
1500m to 5 km
500 to 1000 ft
800 to 1500m
200 to 500 ft
< 800m
< 200 ft
Symbols :   Thunderstorms  Fog  Heavy snow  Heavy precipitations  Wind > 20 kt
SIGMETs :     Misc.  Thunderstorms  Icing  Turbulence  Mountain Waves  Volcanic Ashes







- Airport Elevation : 1367 ft
- IATA code : FDH


EDNY - Friedrichshafen

CURRENT METAR :
  • 221820Z 01007KT 9999 BKN062 16/04 Q1025

EXPIRED METARs :
  • 221750Z 02006KT 9999 BKN064 16/04 Q1025
  • 221720Z 01007KT 9999 SCT065 17/04 Q1024
  • 221650Z 01008KT 9999 SCT066 17/05 Q1024
  • 221620Z 03008KT 9999 BKN069 17/05 Q1024
  • 221550Z 03009KT 9999 BKN067 17/06 Q1024

TAF TAF EDNY
Valid from the 22 at 18:00 until the 23 at 18:00 UTC


221700Z 2218/2318 03009KT 9999 FEW050
BECMG 2218/2220 03004KT
BECMG 2309/2311 24005KT
BECMG 2316/2318 VRB03KT
No reported NOTAMs for that airfield.



MET'MAP, your aeronautical weather chart ! - Copyright ORBIFLY December 2007 - Disclaimer

ORBIFLY MET'MAP TEAM :

Programming & Development : Alexandra Zaïnal
Concept & Development : Baudouin d'Aumeries
Co-Development & Prog : Marc-Olivier Méhu
Technical & hardware support : Manuel Goepfert

Contact : metmap@orbifly.com




SOURCES & CREDITS :

   NOAA